HODOYOSHI 4

Satellite information

Favourite Embed

Satellite Type and Status

PAYLOADIN ORBIT

Key statistics

Satellite HODOYOSHI 4 at a glance.

Uptime

4199

Days in orbit

Revolutions

≈ 14.9

Per day

Orbit

SSO

Sun Synchronous Orbit

Inclination

97.5

Latest

Satellite identification and parameters

Extended collection of information and parameters for HODOYOSHI 4.

Object identification

Identified? True

Debris? False

Object name: HODOYOSHI 4

International designator: 2014-033B

Object number (NORAD): 40011

Object ID (CCSDS): 40011

Country: JAPAN (JPN)

Current information (Y/N): Y

RCS size: MEDIUM

Orbital parameters

Period: 96.807 minutes

Inclination: 97.5413 deg

SMA: 6983.892 km

Apoapsis: 622.085 km

Periapsis: 589.429 km

RAAN: 179.6559 deg

Eccentricy: 0.00233795

Argument of periapsis: 186.2241 deg

Mean anomaly: 173.8689 deg

Mean motion: 14.87498226 rev/day

Mean motion (dot): 0.00001196 rev/day2

B* drag term: 0.00013701979 1/REarth

Two-line elements (TLE)

Creation date: Dec. 17, 2025, 2:25 a.m.

Reference frame: TEME

Reference center: EARTH

Epoch: Dec. 16, 2025, 11:33 p.m. UTC

TLE line 0: 0 HODOYOSHI 4

TLE line 1: 1 40011U 14033B 25350.98134187 .00001196 00000-0 13702-3 0 9996

TLE line 2: 2 40011 97.5413 179.6559 0023379 186.2241 173.8689 14.87498226621717

Live tracking on map

Real-time ground track for satellite HODOYOSHI 4.

In-orbit conjunctions

There are no conjunctions computed for HODOYOSHI 4, at the moment. Check back to stay up to date, as we update our databases every day.

Go to all conjunctions

Associated space launch

HODOYOSHI 4 was lifted into orbit during the mission ‘Dnepr 1 | Multipayload, 37 satellites.’, on board a Dnepr space rocket.

The launch took place on June 19, 2014, 7:11 p.m. from 370/13.

For more information about the launch, click the button.

Launch to space Dnepr 1 | Multipayload, 37 satellites.
Dnepr 1 | Multipayload, 37 satellites.

Agency: N/A

Status: Launch Successful

Launch date: June 19, 2014, 7:11 p.m. UTC

Rocket: Dnepr

Launch pad: 370/13

Location: Dombarovskiy, Russian Federation

...

Latest news about this satellite

There are no fresh news available about this satellite. Check back as we update our databases every day.


Newsletter sign-up

Weekly statistics, charts and insights to help you stay on top of the space industry.